This is the latest recevied weather packets stored in our database for station/object WX6HNX-6. If no packets are shown the sender has not sent any weather packets the latest 10 day(s).
| Time | Temp. | Humidity | Pressure | Rain* | Wind** | Luminosity | Snow |
|---|---|---|---|---|---|---|---|
| 1777746258 | 26.11° C | 48% | 1011.7 hPa | 0 mm | - | - | - |
| 1777745958 | 26.11° C | 51% | 1011.8 hPa | 0 mm | - | - | - |
| 1777745658 | 26.11° C | 48% | 1011.8 hPa | 0 mm | - | - | - |
| 1777745358 | 26.11° C | 48% | 1011.8 hPa | 0 mm | - | - | - |
| 1777745059 | 26.11° C | 48% | 1011.8 hPa | 0 mm | - | - | - |
| 1777744758 | 25.56° C | 48% | 1011.8 hPa | 0 mm | - | - | - |
| 1777743451 | 25° C | 50% | 1012 hPa | 0 mm | - | - | - |
| 1777742851 | 24.44° C | 49% | 1012 hPa | 0 mm | - | - | - |
| 1777742399 | 24.44° C | 50% | 1012 hPa | 0 mm | - | - | - |
| 1777742099 | 23.89° C | 53% | 1012 hPa | 0 mm | - | - | - |
| 1777741799 | 23.89° C | 52% | 1012.1 hPa | 0 mm | - | - | - |
| 1777741499 | 23.33° C | 53% | 1012.1 hPa | 0 mm | - | - | - |
| 1777741199 | 23.33° C | 53% | 1012.1 hPa | 0 mm | - | - | - |
| 1777740598 | 23.33° C | 53% | 1012.2 hPa | 0 mm | - | - | - |
| 1777740299 | 22.78° C | 53% | 1012.1 hPa | 0 mm | - | - | - |
| 1777739698 | 22.78° C | 52% | 1012.2 hPa | 0 mm | - | - | - |
| 1777739230 | 22.78° C | 51% | 1012.2 hPa | 0 mm | - | - | - |
| 1777738930 | 22.78° C | 53% | 1012.2 hPa | 0 mm | - | - | - |
| 1777738630 | 22.22° C | 51% | 1012.2 hPa | 0 mm | - | - | - |
| 1777738330 | 22.22° C | 55% | 1012.2 hPa | 0 mm | - | - | - |
| 1777738030 | 22.22° C | 52% | 1012.1 hPa | 0 mm | - | - | - |
| 1777737730 | 21.67° C | 54% | 1012.1 hPa | 0 mm | - | - | - |
| 1777736230 | 20.56° C | 58% | 1011.9 hPa | 0 mm | - | - | - |
| 1777735929 | 20° C | 58% | 1011.9 hPa | 0 mm | - | - | - |
| 1777735630 | 20° C | 59% | 1012 hPa | 0 mm | - | - | - |
* Rain latest hour (hover to see other rain measurements)
** Current wind speed in m/s (hover to see current wind gust speed)